{"data":{"norad_id":52633,"intl_designator":"2022-052AM","name":"STARLINK-3994","alt_names":[],"object_type":"PAYLOAD","status":"ACTIVE","operator":null,"country":"US","launch_date":"2022-05-14","launch_site_code":"AFETR","launch_vehicle":null,"mission":null,"orbit_class":"UNKNOWN","rcs_meters":null,"size_class":null,"mass_kg":null,"dimensions":null,"purposes":["comms"],"wikipedia_slug":null,"has_3d_model":false,"image_url":null,"decayed_at":null,"tle_current":{"epoch":"2026-09-20T02:40:57.714240Z","epoch_age_seconds":100027,"freshness":"FRESH","line1":"1 52633U 22052AM  26263.11177910  .00001970  00000+0  14178-3 0  9996","line2":"2 52633  53.1586 115.6641 0001655  84.4198 275.6983 15.08862763240354","mean_motion":15.08862763,"eccentricity":0.0001655,"inclination_deg":53.1586,"raan_deg":115.6641,"arg_perigee_deg":84.4198,"mean_anomaly_deg":275.6983,"bstar":0.00014178,"rev_number":24035,"period_min":95.436114888071,"perigee_km":538.52891476484,"apogee_km":540.81871014376,"semimajor_km":6917.8108124543,"source":"CELESTRAK","updated_at":"2026-09-20T09:00:40.096301Z"}}}